NAPEX1 KBOS-KJFK

Flight info

Callsign NAPEX1
Flight time 0h 41m
Altitude 22000
Route SSOXS7 SSOXS BUZRD SEY PARCH4
Aircraft C25C/L-SG/L

Departure

Time 2026-05-05 01:37
Airport Boston Logan International Airport (KBOS)

Arrival

Time 2026-05-05 02:18
Airport John F. Kennedy International Airport (KJFK)
Time Latitude Longitude Altitude Speed Heading
2026-05-05 01:30 42.36435 -71.00771 23 ft 0 kts 292°
2026-05-05 01:32 42.36459 -71.00846 23 ft 17 kts 298°
2026-05-05 01:32 42.36589 -71.00873 23 ft 18 kts 350°
2026-05-05 01:32 42.36645 -71.01073 22 ft 27 kts 283°
2026-05-05 01:33 42.36759 -71.01143 20 ft 23 kts 354°
2026-05-05 01:33 42.36877 -71.01218 17 ft 16 kts
2026-05-05 01:33 42.36982 -71.01118 18 ft 24 kts 34°
2026-05-05 01:33 42.37163 -71.00991 16 ft 32 kts 25°
2026-05-05 01:34 42.37275 -71.00921 15 ft 0 kts 26°
2026-05-05 01:34 42.37298 -71.00907 15 ft 12 kts 20°
2026-05-05 01:34 42.37442 -71.00838 16 ft 31 kts 19°
2026-05-05 01:34 42.37698 -71.00715 21 ft 47 kts 18°
2026-05-05 01:35 42.37837 -71.00609 24 ft 16 kts 78°
2026-05-05 01:35 42.37836 -71.00580 21 ft 0 kts 105°
2026-05-05 01:35 42.37835 -71.00575 21 ft 1 kts 106°
2026-05-05 01:35 42.37828 -71.00541 21 ft 11 kts 107°
2026-05-05 01:36 42.37748 -71.00493 19 ft 0 kts 199°
2026-05-05 01:36 42.37713 -71.00510 20 ft 38 kts 200°
2026-05-05 01:37 42.37046 -71.00834 169 ft 151 kts 200°
2026-05-05 01:37 42.35939 -71.01344 1183 ft 175 kts 202°
2026-05-05 01:37 42.34812 -71.01850 2339 ft 173 kts 204°
2026-05-05 01:37 42.33620 -71.02396 2948 ft 192 kts 205°
2026-05-05 01:38 42.32249 -71.03047 3037 ft 224 kts 204°
2026-05-05 01:38 42.30752 -71.03756 3048 ft 218 kts 204°
2026-05-05 01:38 42.29421 -71.04306 3039 ft 191 kts 199°
2026-05-05 01:38 42.28140 -71.04457 3030 ft 182 kts 184°
2026-05-05 01:39 42.26910 -71.04132 3022 ft 177 kts 173°
2026-05-05 01:39 42.25752 -71.03598 3025 ft 174 kts 168°
2026-05-05 01:39 42.24644 -71.02941 3019 ft 174 kts 161°
2026-05-05 01:39 42.23592 -71.02151 3034 ft 173 kts 159°
2026-05-05 01:40 42.22567 -71.01312 3040 ft 174 kts 154°
2026-05-05 01:40 42.21598 -71.00361 3042 ft 173 kts 155°
2026-05-05 01:40 42.20584 -70.99418 3040 ft 185 kts 153°
2026-05-05 01:40 42.19478 -70.98348 3056 ft 211 kts 152°
2026-05-05 01:41 42.18210 -70.97094 3118 ft 239 kts 148°
2026-05-05 01:41 42.16850 -70.95589 3055 ft 265 kts 148°
2026-05-05 01:41 42.15360 -70.93990 3056 ft 281 kts 147°
2026-05-05 01:41 42.13851 -70.92341 3057 ft 275 kts 147°
2026-05-05 01:42 42.12384 -70.90743 3091 ft 267 kts 147°
2026-05-05 01:42 42.10965 -70.89167 3871 ft 267 kts 147°
2026-05-05 01:42 42.09496 -70.87587 5047 ft 275 kts 146°
2026-05-05 01:42 42.07985 -70.86011 6153 ft 282 kts 147°
2026-05-05 01:43 42.06397 -70.84423 7242 ft 286 kts 150°
2026-05-05 01:43 42.04643 -70.83171 8338 ft 288 kts 159°
2026-05-05 01:43 42.02806 -70.82040 9428 ft 293 kts 159°
2026-05-05 01:43 42.00927 -70.80937 10463 ft 297 kts 160°
2026-05-05 01:44 41.99023 -70.79820 11464 ft 301 kts 160°
2026-05-05 01:44 41.97094 -70.78682 12438 ft 306 kts 160°
2026-05-05 01:44 41.95138 -70.77490 13403 ft 311 kts 160°
2026-05-05 01:44 41.93161 -70.76273 14264 ft 316 kts 160°
2026-05-05 01:45 41.91181 -70.75028 15059 ft 320 kts 160°
2026-05-05 01:45 41.89139 -70.73805 15839 ft 322 kts 166°
2026-05-05 01:45 41.86969 -70.73633 16621 ft 311 kts 195°
2026-05-05 01:45 41.84847 -70.74237 17416 ft 312 kts 200°
2026-05-05 01:46 41.82930 -70.75517 18196 ft 308 kts 217°
2026-05-05 01:46 41.81269 -70.77311 18907 ft 306 kts 231°
2026-05-05 01:46 41.79839 -70.79444 19639 ft 311 kts 231°
2026-05-05 01:46 41.78279 -70.81495 20353 ft 318 kts 227°
2026-05-05 01:47 41.76627 -70.83500 21126 ft 322 kts 227°
2026-05-05 01:47 41.74969 -70.85547 21894 ft 327 kts 228°
2026-05-05 01:47 41.73284 -70.87669 22077 ft 349 kts 228°
2026-05-05 01:47 41.71462 -70.89982 22092 ft 372 kts 228°
2026-05-05 01:48 41.69514 -70.92404 22092 ft 391 kts 227°
2026-05-05 01:48 41.67497 -70.94913 22090 ft 393 kts 227°
2026-05-05 01:48 41.65530 -70.97350 22091 ft 379 kts 227°
2026-05-05 01:48 41.63634 -70.99728 22090 ft 370 kts 228°
2026-05-05 01:49 41.61768 -71.02053 22080 ft 364 kts 227°
2026-05-05 01:49 41.59912 -71.04378 22078 ft 367 kts 227°
2026-05-05 01:49 41.58031 -71.06711 22078 ft 370 kts 227°
2026-05-05 01:49 41.56167 -71.09034 22078 ft 373 kts 227°
2026-05-05 01:50 41.54262 -71.11393 22079 ft 375 kts 227°
2026-05-05 01:50 41.52347 -71.13779 22084 ft 377 kts 227°
2026-05-05 01:50 41.50417 -71.16163 22081 ft 379 kts 227°
2026-05-05 01:50 41.48492 -71.18557 22082 ft 380 kts 227°
2026-05-05 01:51 41.46552 -71.20951 22082 ft 380 kts 227°
2026-05-05 01:51 41.44613 -71.23358 22076 ft 381 kts 227°
2026-05-05 01:51 41.42665 -71.25758 22075 ft 382 kts 227°
2026-05-05 01:51 41.40720 -71.28168 22078 ft 382 kts 227°
2026-05-05 01:52 41.38793 -71.30538 22076 ft 382 kts 227°
2026-05-05 01:52 41.36822 -71.32976 22079 ft 382 kts 227°
2026-05-05 01:52 41.34890 -71.35348 22085 ft 383 kts 227°
2026-05-05 01:52 41.32938 -71.37758 22087 ft 383 kts 227°
2026-05-05 01:53 41.30978 -71.40160 22089 ft 383 kts 227°
2026-05-05 01:53 41.29028 -71.42564 22091 ft 383 kts 227°
2026-05-05 01:53 41.27066 -71.44965 22094 ft 383 kts 227°
2026-05-05 01:53 41.25110 -71.47373 22096 ft 383 kts 227°
2026-05-05 01:54 41.23147 -71.49771 22098 ft 383 kts 227°
2026-05-05 01:54 41.21189 -71.52175 22098 ft 383 kts 227°
2026-05-05 01:54 41.19225 -71.54571 22098 ft 383 kts 227°
2026-05-05 01:54 41.17396 -71.57056 22090 ft 378 kts 237°
2026-05-05 01:55 41.16071 -71.60029 22090 ft 373 kts 248°
2026-05-05 01:55 41.15145 -71.63229 22094 ft 371 kts 252°
2026-05-05 01:55 41.14218 -71.66429 22094 ft 372 kts 252°
2026-05-05 01:55 41.13299 -71.69634 22088 ft 371 kts 252°
2026-05-05 01:56 41.12377 -71.72836 22088 ft 372 kts 252°
2026-05-05 01:56 41.11463 -71.76038 22097 ft 372 kts 252°
2026-05-05 01:56 41.10534 -71.79243 22101 ft 372 kts 252°
2026-05-05 01:56 41.09613 -71.82453 22103 ft 372 kts 252°
2026-05-05 01:57 41.08684 -71.85653 22104 ft 372 kts 252°
2026-05-05 01:57 41.07992 -71.88903 22101 ft 370 kts 261°
2026-05-05 01:57 41.07590 -71.92255 22103 ft 369 kts 263°
2026-05-05 01:57 41.07193 -71.95616 22105 ft 369 kts 262°
2026-05-05 01:58 41.06635 -71.98946 22104 ft 370 kts 258°
2026-05-05 01:58 41.06023 -72.02263 22101 ft 370 kts 259°
2026-05-05 01:58 41.05475 -72.05589 22099 ft 370 kts 260°
2026-05-05 01:58 41.04944 -72.08927 22100 ft 370 kts 260°
2026-05-05 01:59 41.04398 -72.12263 22001 ft 372 kts 260°
2026-05-05 01:59 41.03828 -72.15655 21555 ft 382 kts 259°
2026-05-05 01:59 41.03256 -72.19085 21065 ft 377 kts 259°
2026-05-05 01:59 41.02696 -72.22411 20573 ft 363 kts 259°
2026-05-05 02:00 41.02166 -72.25623 20100 ft 352 kts 259°
2026-05-05 02:00 41.01647 -72.28707 19651 ft 343 kts 259°
2026-05-05 02:00 41.01141 -72.31761 19196 ft 336 kts 259°
2026-05-05 02:00 41.00634 -72.34750 18762 ft 330 kts 259°
2026-05-05 02:01 41.00143 -72.37700 18328 ft 326 kts 259°
2026-05-05 02:01 40.99649 -72.40608 17865 ft 321 kts 259°
2026-05-05 02:01 40.99171 -72.43477 17439 ft 317 kts 259°
2026-05-05 02:01 40.98688 -72.46300 17023 ft 313 kts 259°
2026-05-05 02:02 40.98220 -72.49103 16610 ft 310 kts 259°
2026-05-05 02:02 40.97743 -72.51881 16204 ft 308 kts 259°
2026-05-05 02:02 40.97281 -72.54645 15798 ft 307 kts 259°
2026-05-05 02:02 40.96815 -72.57351 15402 ft 306 kts 259°
2026-05-05 02:03 40.96355 -72.60093 15000 ft 305 kts 259°
2026-05-05 02:03 40.95882 -72.62826 14600 ft 304 kts 259°
2026-05-05 02:03 40.95424 -72.65551 14196 ft 304 kts 259°
2026-05-05 02:03 40.94954 -72.68276 13807 ft 304 kts 259°
2026-05-05 02:04 40.94495 -72.71002 13371 ft 303 kts 259°
2026-05-05 02:04 40.94020 -72.73720 12935 ft 303 kts 259°
2026-05-05 02:04 40.93559 -72.76440 12510 ft 303 kts 259°
2026-05-05 02:04 40.93086 -72.79146 12190 ft 300 kts 259°
2026-05-05 02:05 40.92699 -72.81776 12119 ft 290 kts 262°
2026-05-05 02:05 40.92292 -72.84354 12110 ft 282 kts 258°
2026-05-05 02:05 40.91876 -72.86855 12104 ft 276 kts 260°
2026-05-05 02:05 40.91498 -72.89318 12100 ft 271 kts 260°
2026-05-05 02:06 40.91126 -72.91734 12102 ft 267 kts 261°
2026-05-05 02:06 40.90756 -72.94126 12100 ft 265 kts 259°
2026-05-05 02:06 40.90382 -72.96526 12101 ft 268 kts 260°
2026-05-05 02:06 40.90003 -72.98948 12098 ft 270 kts 259°
2026-05-05 02:07 40.89623 -73.01389 12083 ft 272 kts 260°
2026-05-05 02:07 40.89239 -73.03842 12084 ft 273 kts 259°
2026-05-05 02:07 40.88853 -73.06300 12036 ft 276 kts 260°
2026-05-05 02:07 40.88461 -73.08809 11665 ft 288 kts 259°
2026-05-05 02:08 40.88047 -73.11439 11297 ft 297 kts 260°
2026-05-05 02:08 40.87623 -73.14144 10900 ft 304 kts 259°
2026-05-05 02:08 40.87186 -73.16903 10525 ft 309 kts 260°
2026-05-05 02:08 40.86746 -73.19702 10130 ft 314 kts 259°
2026-05-05 02:09 40.86294 -73.22544 9717 ft 317 kts 260°
2026-05-05 02:09 40.85842 -73.25409 9267 ft 319 kts 259°
2026-05-05 02:09 40.85385 -73.28286 8826 ft 320 kts 259°
2026-05-05 02:09 40.84928 -73.31170 8398 ft 321 kts 259°
2026-05-05 02:10 40.84466 -73.34047 7971 ft 320 kts 259°
2026-05-05 02:10 40.84020 -73.36871 7548 ft 303 kts 258°
2026-05-05 02:10 40.83604 -73.39434 7124 ft 276 kts 259°
2026-05-05 02:10 40.83228 -73.41824 6707 ft 257 kts 258°
2026-05-05 02:11 40.82860 -73.44073 6282 ft 244 kts 259°
2026-05-05 02:11 40.82524 -73.46228 5838 ft 235 kts 258°
2026-05-05 02:11 40.82186 -73.48308 5398 ft 229 kts 257°
2026-05-05 02:11 40.81859 -73.50337 5083 ft 219 kts 256°
2026-05-05 02:12 40.81558 -73.52221 5050 ft 202 kts 257°
2026-05-05 02:12 40.80980 -73.55809 4281 ft 206 kts 256°
2026-05-05 02:12 40.80674 -73.57669 3869 ft 207 kts 256°
2026-05-05 02:13 40.80387 -73.59478 3597 ft 201 kts 256°
2026-05-05 02:13 40.80095 -73.61264 3345 ft 197 kts 256°
2026-05-05 02:13 40.79720 -73.62977 3071 ft 193 kts 239°
2026-05-05 02:13 40.78825 -73.64237 2995 ft 183 kts 219°
2026-05-05 02:14 40.77764 -73.65085 2970 ft 175 kts 212°
2026-05-05 02:14 40.76721 -73.65912 2770 ft 176 kts 213°
2026-05-05 02:14 40.75662 -73.66738 2540 ft 177 kts 212°
2026-05-05 02:14 40.74605 -73.67571 2307 ft 179 kts 212°
2026-05-05 02:15 40.73534 -73.68414 2069 ft 180 kts 212°
2026-05-05 02:15 40.72455 -73.69258 1831 ft 180 kts 211°
2026-05-05 02:15 40.71387 -73.70102 1610 ft 173 kts 211°
2026-05-05 02:15 40.70455 -73.70831 1401 ft 132 kts 210°
2026-05-05 02:16 40.69755 -73.71379 1221 ft 106 kts 210°
2026-05-05 02:16 40.69358 -73.71687 1126 ft 95 kts 210°
2026-05-05 02:16 40.68615 -73.72279 964 ft 95 kts 210°
2026-05-05 02:16 40.68233 -73.72558 884 ft 95 kts 206°
2026-05-05 02:17 40.67456 -73.73188 718 ft 100 kts 207°
2026-05-05 02:17 40.66862 -73.73628 589 ft 100 kts 210°
2026-05-05 02:17 40.66269 -73.74123 457 ft 102 kts 203°
2026-05-05 02:17 40.65632 -73.74570 319 ft 106 kts 210°
2026-05-05 02:18 40.65032 -73.75093 173 ft 100 kts 207°
2026-05-05 02:18 40.64456 -73.75538 65 ft 91 kts 207°
2026-05-05 02:18 40.63947 -73.75914 16 ft 73 kts 206°
2026-05-05 02:18 40.63579 -73.76201 15 ft 47 kts 213°
2026-05-05 02:19 40.63361 -73.76424 15 ft 36 kts 225°
2026-05-05 02:19 40.63242 -73.76658 13 ft 21 kts 259°
2026-05-05 02:19 40.63267 -73.76780 14 ft 22 kts 300°
2026-05-05 02:19 40.63370 -73.77011 14 ft 22 kts 300°
2026-05-05 02:20 40.63451 -73.77190 14 ft 23 kts 301°
2026-05-05 02:20 40.63534 -73.77373 14 ft 23 kts 302°
2026-05-05 02:20 40.63618 -73.77557 14 ft 24 kts 304°
2026-05-05 02:20 40.63753 -73.77519 13 ft 23 kts 31°